Download List

Project Description

EHR/EMR cross-platform software for the design, implementation and use of autonomous, open, database models for multilingual medical knowledge management systems from primary care to continuing care.

System Requirements

Operating System: OS Portable (Source code to work with many OS platforms), Windows XP

Download Package list

Latest 5 files
Name Size Date Download count
MEDILIG FE MSAccess - Installation.pdf 935.3 KB 2010-10-02 23:29 15
MEDILIG README FIRST.pdf 384.4 KB 2010-10-02 23:22 69
MEDILIGFE_NEUROSURGERY.accdb 4.7 MB 2010-09-30 23:09 57
MEDILIG RECENT CHANGES.pdf 321.9 KB 2010-09-23 16:51 13
MEDILIG_20100913.ZIP 121.4 MB 2010-09-14 01:16 34
All Files
FE_MSAccess
MEDILIG FE MSAccess - Installation.pdf935.3 KB2010-10-02 23:2915
MEDILIGFE_NEUROSURGERY.accdb4.7 MB2010-09-30 23:0957
MEDILIG FE MSAccess - User Guide.pdf2.1 MB2010-09-13 23:4919
Data Sources (ODBC).lnk1.5 KB2010-09-10 21:0922
MEDILIG README FIRST.pdf384.4 KB2010-10-02 23:2269
MEDILIG RECENT CHANGES.pdf321.9 KB2010-09-23 16:5113
MEDILIG_20100913.ZIP121.4 MB2010-09-14 01:1634
FE_OpenOffice
MEDILIG FE OpenOffice - User Guide.pdf741.8 KB2010-09-13 23:5118
MEDILIG FE OpenOffice - INSTALLATION.pdf658.3 KB2010-09-13 23:5019
MEDILIG_JDBC_MYSQL.odb29.2 KB2010-09-13 23:2412
MEDILIG_ODBC_MSQL.odb1.7 KB2010-09-08 04:3412
Connectors
mysql-connector-java-5.1.13-bin.jar749.5 KB2010-06-23 22:384131
mysql-connector-ooo-1.0.0-windows-intel.oxt1.9 MB2010-06-20 04:4272
mysql-connector-odbc-5.1.6-win32.msi4.4 MB2009-12-03 03:021539
mysql-connector-net-6.1.3.msi6.9 MB2009-11-11 17:34327
DB_MYSQL
MEDILIG MYSQL - User Guide.pdf2.3 MB2010-09-13 23:4622
MEDILIG MYSQL - INSTALLATION.pdf1.1 MB2010-09-13 23:4425
DATA_LUT
MEDILIG_NEUROSURGERY_LUT_DATA.ods79.2 KB2010-09-13 20:2317
MEDILIG_MYSQL_WORKBENCH.mwb128.4 KB2010-09-13 18:4449
MEDILIG_MYSQL 20100907 2253.sql1.1 MB2010-09-08 03:546
DB_MSQL
MEDILIG MSQL - INSTALLATION.pdf1.4 MB2010-09-13 23:4318
MEDILIG MSQL - User Guide.pdf2.3 MB2010-09-13 23:4111
DATA_MDF
MEDILIG_dat.MDF33.9 MB2010-09-13 22:2022
MEDILIG_log.LDF504.0 KB2010-09-13 22:2019
DATA_SQL
LUT_ImportData.sql2.5 KB2010-09-10 02:1017
attach_medilig_neurosurgery.sql0.2 KB2010-09-10 01:4315
MEDILIG_MSQL_v1.sql291.7 KB2010-03-11 06:5613
INSTALL_MSQL
SQL Server 2005 Express redistribution license (English).rtf151.1 KB2010-09-09 19:0118
SQL Server 2005 Management Studio Express .msi44.2 MB2010-09-07 18:26107
SQLEXPR_32_SP3.EXE36.8 MB2010-09-07 18:1911
SSEUtil.exe160.0 KB2005-11-01 01:4042
ReadMe.htm91.1 KB2005-11-01 01:4018
DATA_LUT
MEDILIG_NEUROSURGERY_LUT_DATA.xls292.5 KB2010-09-08 18:1212
LUT_Vx_Status.dat0.6 KB2010-03-09 02:296
LUT_Vx_Outcome.dat0.8 KB2010-03-09 02:294
LUT_Telecom_Type.dat0.4 KB2010-03-09 02:2910
LUT_Telecom_Mode.dat0.3 KB2010-03-09 02:2918
LUT_Rx_Route.dat1.1 KB2010-03-09 02:296
LUT_Rx_Form.dat0.5 KB2010-03-09 02:2913
LUT_Rx_Drug_Category.dat2.0 KB2010-03-09 02:2910
LUT_Rx_Drug.dat4.5 KB2010-03-09 02:297
LUT_Rx_DoseUnit.dat0.4 KB2010-03-09 02:298
LUT_PxAuthentication_Type.dat0.4 KB2010-03-09 02:294
LUT_Px_ReferralType.dat1.9 KB2010-03-09 02:293
LUT_Px_Profession.dat0.3 KB2010-03-09 02:2914
LUT_Px_Gender.dat0.2 KB2010-03-09 02:2920
LUT_Px_Education.dat0.3 KB2010-03-09 02:2914
LUT_Ox_Priority.dat2.3 KB2010-03-09 02:2916
LUT_Ox_Method.dat4.3 KB2010-03-09 02:299
LUT_Ox_Approach.dat0.6 KB2010-03-09 02:293
LUT_Ox_Anesthesia.dat0.3 KB2010-03-09 02:295
LUT_Mx_Type.dat1.0 KB2010-03-09 02:299
LUT_Mx_Format.dat2.0 KB2010-03-09 02:298
LUT_Lx_Range.dat0.9 KB2010-03-09 02:2911
LUT_Lx_Type.dat2.1 KB2010-03-09 02:299
LUT_Lx_Category.dat0.2 KB2010-03-09 02:293
LUT_Ix_Type.dat0.8 KB2010-03-09 02:289
LUT_Hx_Type.dat3.7 KB2010-03-09 02:284
LUT_Hx_Category.dat0.6 KB2010-03-09 02:284
LUT_HPx_Specialty.dat9.0 KB2010-03-09 02:2816
LUT_HPx_Role.dat0.9 KB2010-03-09 02:2811
LUT_HPx_Grade.dat1.0 KB2010-03-09 02:2816
LUT_Dx_Type.dat5.1 KB2010-03-09 02:2812
LUT_Dx_Status.dat0.5 KB2010-03-09 02:2817
LUT_Dx_Severity.dat0.9 KB2010-03-09 02:283
LUT_Dx_Pathology.dat9.1 KB2010-03-09 02:2812
LUT_Dx_Localization.dat2.9 KB2010-03-09 02:288
LUT_Dx_Laterality.dat0.3 KB2010-03-09 02:2810
LUT_Dx_Chronicity.dat0.2 KB2010-03-09 02:286
LUT_Dx_Category.dat4.2 KB2010-03-09 02:282
LUT_Dx_BroadCategory.dat1.6 KB2010-03-09 02:283
LUT_Cx_Ward.dat0.7 KB2010-03-09 02:2815
LUT_Cx_Type.dat1.0 KB2010-03-09 02:289
LUT_Cx_Degree.dat0.5 KB2010-03-09 02:286
LUT_Cx_BedType.dat1.2 KB2010-03-09 02:287
LUT_CSx_Variation.dat0.3 KB2010-03-09 02:276
LUT_CSx_Type.dat7.0 KB2010-03-09 02:2711
LUT_CSx_Progression.dat0.3 KB2010-03-09 02:273
LUT_CSx_Intensity.dat1.1 KB2010-03-09 02:2716
LUT_CSx_CourseType.dat0.2 KB2010-03-09 02:2715
LUT_CStage.dat0.7 KB2010-03-09 02:2714
LUT_COx_Type.dat3.8 KB2010-03-09 02:272
LUT_COx_Range.dat4.5 KB2010-03-09 02:277
LUT_Course_Outcome.dat0.3 KB2010-03-09 02:2713
LUT_Course_Complication_Type.dat6.3 KB2010-03-09 02:2615
LUT_Contact_RelType.dat0.5 KB2010-03-09 02:267
LUT_CEx_CC.dat4.8 KB2010-03-09 02:2615
LUT_Ax_Type.dat0.7 KB2010-03-09 02:2612
LUT_Ax_Transfer.dat0.6 KB2010-03-09 02:269
LUT_Ax_Status.dat1.4 KB2010-03-09 02:2610
LUT_Ax_OperativeStatus.dat0.3 KB2010-03-09 02:265
LUT_Ax_DischargeRegularity.dat0.4 KB2010-03-09 02:2612
LUT_Address_Type.dat0.4 KB2010-03-09 02:2612
LUT_Address_StateProvince.dat1.6 KB2010-03-09 02:2617
LUT_Address_Country.dat2.6 KB2010-03-09 02:2611
LUT_Address_City.dat3.0 KB2010-03-09 02:258
test.bat0.3 KB2010-03-05 01:2714
lutexport.bat10.7 KB2010-03-05 01:2610
MEDILIG INTRODUCTION.pdf508.6 KB2010-09-13 23:3812
DB_PROTEGE
catalog-v001.xml0.6 KB2010-09-09 01:3416
medilig_ontology_imported_by_datamaster.owl1.5 MB2010-09-09 01:3413
OntoGraf_mt_Px.graph2.7 KB2010-09-09 01:2213
DB_VISUALIZER
MEDILIG_MYSQL.xml202.0 KB2010-09-08 20:503
MEDILIG_Hierarchy_Diagram.pdf32.1 KB2010-06-20 21:365
MEDILIG-organic-diagram.gml41.6 KB2010-06-20 21:1519
MEDILIG_organic.pdf21.2 KB2010-06-20 21:083
DB_COMPARISON
ER MEDILIG MSQL DIAGRAM.pdf600.6 KB2010-07-30 23:2111
ER MEDILIG MSQL GRAPH.pdf24.8 KB2010-07-30 22:0812
ER HL7.pdf456.0 KB2010-06-28 20:0454
ER NHS.pdf654.6 KB2010-06-28 19:4114
ER OpenEHR.pdf593.3 KB2010-03-11 19:0378
Archives
MEDILIG_20100325.ZIP8.9 MB2010-03-26 00:433
LICENSE
ODbL-10.txt24.7 KB2010-03-19 21:5012
GNU GPLv3.txt34.3 KB2010-03-18 19:3847